Location: Mantua Corners
(41.3103°N, 81.2212°W)
Time: 02:40:19
(UTC+00:00)

ACS3 Solar Sail - Pass Details

Date: 05 October 2024
Orbit: 961 x 1022 km, 97.5° (Epoch: 03 November)

Event Time Altitude Azimuth Distance (km) Brightness Sun altitude
Exits shadow 00:52:58 39° 117° (ESE) 1,480 2.2 -21.8°
Maximum altitude 00:54:49 51° 71° (ENE) 1,270 2.0 -22.1°
Drops below altitude 10° 01:01:00 10° 358° (N) 2,839 4.4 -23.3°
Sets 01:03:35 0° 354° (N) 3,798 5.2 -23.7°
